Rbgn^[z[y[W
メイン
   新天体発見情報
     Comet P/2010 WK = 2010 PB57 = 2024 O3 (LINEAR)
投稿するにはまず登録を

スレッド表示 | 新しいものから 前のトピック | 次のトピック | 下へ
投稿者 スレッド
佐藤裕久
投稿日時: 2024-8-31 10:39
モデレータ
登録日: 2005-6-12
居住地: 日本
投稿: 2585
オンライン
Comet P/2010 WK = 2010 PB57 = 2024 O3 (LINEAR)

7月18日UT、Zwicky Transient Facility (ZTF) サーベイで、Palomarの1.2-m f/2.44 Oschin-
Schmidt望遠鏡で得たCCD画像から、発見された小惑星と思われる天体がP/2010 WKが(CBET 2607、
IAUC 9195を参照)と同定された(MPMLフォーラムのA. Odassoによるものらしい)。
また、新しいNEO候補の可能性が報告された天体は、P/2010 WKと同定され、P/2010 WK = 2010 
PB57となった。
NK 2089 (= ICQ's Comet Handbook 2024)の中野主一氏の予報に対する修正値は、Delta(T) = 
-0.60 dayであった。
MPC 75009 のG. V. Williamsの予報に対する修正値は、Delta(T) = -0.74 dayであった。
彗星年表 2022の佐藤裕久の軌道要素の修正値は、Delta(T) =  -0.56 dayであった。

検出位置は次のとおり、

     2024 UT             R.A. (2000) Decl.       Mag.
     July 18.47582    4 45 25.47   +27 48 07.0   19.9
          18.47891    4 45 26.04   +27 48 08.4   19.6
          18.48216    4 45 26.65   +27 48 10.7   19.6
          27.47781    5 12 09.82   +29 04 54.2   19.5
          27.48256    5 12 10.71   +29 04 56.6   19.3
          28.48003    5 15 09.13   +29 12 24.9   19.3
          28.48291    5 15 09.63   +29 12 25.7   19.1
          28.48688    5 15 10.34   +29 12 27.4   19.1
     Aug.  3.48335    5 33 03.59   +29 52 57.1   18.7
           3.48572    5 33 03.96   +29 52 57.8   19.0
           3.48960    5 33 04.73   +29 52 59.8   19.0

MPCの連結軌道要素、位置推算表は次のとおり、

Orbital elements:
    P/2010 WK (LINEAR)                                                          
Epoch 2024 Oct. 17.0 TT = JDT 2460600.5                                         
T 2024 July 20.97712 TT                                 Rudenko                 
q   1.7822261            (2000.0)            P               Q                  
n   0.07117518     Peri.   41.00074     +0.61381832     -0.78849380             
a   5.7665627      Node    11.31727     +0.66288185     +0.48810327             
e   0.6909379      Incl.   11.40015     +0.42873619     +0.37420947             
P  13.8                                                                         
From 646 observations 2010 Aug. 14-2011 Apr. 21.                                
                                                                                
Ephemeris:
Date    TT    R. A. (2000) Decl.     Delta      r    Elong.  Phase   m1
2024 07 24    05 01 48.0 +28 37 13   2.3611  1.7827    44.4    23.5  19.4
...
2024 08 08    05 46 29.7 +30 18 27   2.2885  1.7932    48.9    25.2  19.3
...
2024 08 16    06 10 06.7 +30 53 15   2.2517  1.8046    51.5    26.0  19.3
...
2024 08 22    06 27 33.9 +31 10 58   2.2247  1.8157    53.5    26.6  19.3
2024 08 23    06 30 26.7 +31 13 15   2.2203  1.8178    53.9    26.7  19.3
2024 08 24    06 33 19.0 +31 15 21   2.2158  1.8199    54.2    26.8  19.3
...
2024 08 30    06 50 19.9 +31 24 13   2.1891  1.8338    56.4    27.3  19.3
...
2024 09 07    07 12 20.3 +31 26 53   2.1533  1.8556    59.4    27.9  19.4

(MPEC 2024-Q34、CBET 5436、oaa-comet 6904)

スレッド表示 | 新しいものから 前のトピック | 次のトピック | トップ

投稿するにはまず登録を
 
© 1999 Tsutomu Seki.